Zurück zum Katalog

GSLV R/B

AktivHEO
NORAD 58991·ROCKET BODY·🇮🇳 India

Gestartet Feb 17, 2024 von Satish Dhawan Space Centre

Loading…

Nächste Überflüge (nächste 24 Stunden)

TLE

AktuellSource: Space-Track

Epoche: Sep 14, 2026, 15:06 UTC

1 58991U 24033B   26257.62925060  .00251380  36065-6  17940-2 0  9994
2 58991  19.3485  74.3281 5920839 117.1828 314.1447  4.27974654 29095

Verfolge GSLV R/B in Echtzeit mit AllMySat

Download on the App Store